WD4IXD Weather Reports


Display with metric or nautical units.
time (UTC)temp
F
wind
direction
speed
MPH
gust
MPH
rain 1hr
in
rain 24hr
in
rain mn
in
humidity
%
barometer
mb
20240718223504 85 303 7.0 12.0 0.00 0.01 0.00 32 1024.3
20240718223003 85 319 6.0 9.0 0.00 0.01 0.00 32 1024.2
20240718222504 85 343 5.0 9.0 0.00 0.01 0.00 32 1024.0
20240718222004 85 331 5.0 8.0 0.00 0.01 0.00 32 1024.0
20240718221504 85 345 4.0 9.0 0.00 0.01 0.00 32 1024.0
20240718221004 86 338 3.0 10.0 0.00 0.01 0.00 32 1024.0
20240718220505 86 326 6.0 12.0 0.00 0.01 0.00 32 1023.9
20240718220004 87 310 6.0 12.0 0.00 0.01 0.00 32 1023.9
20240718215503 87 306 8.0 12.0 0.00 0.01 0.00 31 1023.9
20240718215004 88 8 8.0 13.0 0.00 0.01 0.00 30 1023.8
20240718214503 89 330 7.0 13.0 0.00 0.01 0.00 29 1023.8
20240718214004 90 2 7.0 12.0 0.00 0.01 0.00 28 1023.8
20240718213503 91 321 7.0 16.0 0.00 0.01 0.00 28 1023.8
20240718213004 91 334 3.0 9.0 0.00 0.01 0.00 27 1023.7
20240718212504 92 3 7.0 12.0 0.00 0.01 0.00 26 1023.6
20240718212004 92 269 5.0 8.0 0.00 0.01 0.00 26 1023.6
20240718211504 91 331 3.0 6.0 0.00 0.01 0.00 27 1023.6
20240718211003 91 1 4.0 10.0 0.00 0.01 0.00 27 1023.7
20240718210504 91 12 3.0 8.0 0.00 0.01 0.00 29 1023.6
20240718210004 91 348 6.0 12.0 0.00 0.01 0.00 28 1023.6
20240718205504 91 302 4.0 7.0 0.00 0.01 0.00 30 1023.7
20240718205003 91 294 5.0 10.0 0.00 0.01 0.00 30 1023.6
20240718204504 91 287 3.0 7.0 0.00 0.01 0.00 30 1023.8
20240718204003 91 276 3.0 8.0 0.00 0.01 0.00 28 1023.8
20240718203504 92 17 3.0 9.0 0.00 0.01 0.00 29 1023.8
20240718203004 92 307 3.0 6.0 0.00 0.01 0.00 29 1024.0
20240718202504 92 0 4.0 9.0 0.00 0.01 0.00 27 1024.1
20240718202004 92 333 6.0 12.0 0.00 0.01 0.00 29 1024.1
20240718201504 92 124 2.0 9.0 0.00 0.01 0.00 27 1024.0
20240718201005 92 25 3.0 6.0 0.00 0.01 0.00 30 1024.1
20240718200504 92 33 1.0 9.0 0.00 0.01 0.00 31 1024.0
20240718200004 92 282 6.0 12.0 0.00 0.01 0.00 31 1024.1
20240718195503 92 313 5.0 10.0 0.00 0.01 0.00 31 1024.1
20240718195004 91 324 3.0 9.0 0.00 0.01 0.00 31 1024.2
20240718194504 91 300 5.0 12.0 0.00 0.01 0.00 31 1024.3
20240718194003 90 92 2.0 5.0 0.00 0.01 0.00 34 1024.3
20240718193504 90 352 4.0 8.0 0.00 0.01 0.00 33 1024.3
20240718193004 89 300 5.0 10.0 0.00 0.01 0.00 35 1024.4
20240718192503 88 330 4.0 10.0 0.00 0.01 0.00 35 1024.4
20240718192004 88 291 5.0 12.0 0.00 0.01 0.00 36 1024.6
20240718191504 88 309 7.0 12.0 0.00 0.01 0.00 36 1024.8
20240718191004 87 305 6.0 13.0 0.00 0.01 0.00 37 1024.8
20240718190504 87 342 6.0 13.0 0.00 0.01 0.00 37 1024.8
20240718190004 88 354 6.0 12.0 0.00 0.01 0.00 36 1024.8
20240718185504 88 325 6.0 12.0 0.00 0.01 0.00 35 1024.7
20240718185003 87 275 6.0 10.0 0.00 0.01 0.00 36 1024.6
20240718184504 87 314 7.0 13.0 0.00 0.01 0.00 36 1024.6
20240718184004 87 270 6.0 12.0 0.00 0.01 0.00 35 1024.6
20240718183504 87 303 7.0 13.0 0.00 0.01 0.00 36 1024.6
20240718183004 87 306 8.0 14.0 0.00 0.01 0.00 35 1024.7
20240718182504 88 333 7.0 12.0 0.00 0.01 0.00 34 1024.7
20240718182004 87 313 2.0 10.0 0.00 0.01 0.00 35 1024.7
20240718181503 87 326 5.0 9.0 0.00 0.01 0.00 35 1024.7
20240718181004 86 318 3.0 7.0 0.00 0.01 0.00 36 1024.8
20240718180504 86 316 3.0 9.0 0.00 0.01 0.00 36 1024.9
20240718180004 85 12 4.0 8.0 0.00 0.01 0.00 37 1024.9
20240718175504 85 347 5.0 14.0 0.00 0.01 0.00 37 1025.0
20240718175004 85 351 5.0 9.0 0.00 0.01 0.00 37 1024.9
20240718174504 84 310 3.0 8.0 0.00 0.01 0.00 38 1024.8
20240718174004 84 314 3.0 10.0 0.00 0.01 0.00 38 1025.0
20240718173504 84 12 3.0 6.0 0.00 0.01 0.00 38 1025.1
20240718173003 84 344 5.0 10.0 0.00 0.01 0.00 40 1025.0
20240718172504 84 301 6.0 10.0 0.00 0.01 0.00 40 1025.2
20240718172004 84 303 3.0 8.0 0.00 0.01 0.00 40 1025.1
20240718171504 84 3 4.0 9.0 0.00 0.01 0.00 40 1025.1
20240718171003 83 340 4.0 6.0 0.00 0.01 0.00 41 1025.1
20240718170504 83 266 2.0 6.0 0.00 0.01 0.00 42 1025.1
20240718170004 83 299 3.0 8.0 0.00 0.01 0.00 42 1025.1
20240718165504 82 10 0.0 3.0 0.00 0.01 0.00 42 1025.0
20240718165003 81 311 2.0 3.0 0.00 0.01 0.00 45 1025.1
20240718164505 80 322 2.0 5.0 0.00 0.01 0.00 45 1025.0
20240718164004 79 339 2.0 6.0 0.00 0.01 0.00 46 1025.1
20240718163503 79 277 1.0 6.0 0.00 0.01 0.00 47 1025.1
20240718163004 78 307 4.0 8.0 0.00 0.01 0.00 48 1025.1
20240718162503 78 282 4.0 8.0 0.00 0.01 0.00 48 1025.1
20240718162004 77 312 3.0 8.0 0.00 0.01 0.00 50 1025.2
20240718161503 77 314 4.0 8.0 0.00 0.01 0.00 50 1025.1
20240718161004 77 307 3.0 6.0 0.00 0.01 0.00 50 1025.1
20240718160503 76 324 3.0 8.0 0.00 0.01 0.00 51 1025.1
20240718160004 76 5 5.0 8.0 0.00 0.01 0.00 51 1025.1
20240718155504 76 331 4.0 9.0 0.00 0.01 0.00 53 1025.2
20240718155003 75 325 3.0 8.0 0.00 0.01 0.00 55 1025.2
20240718154504 74 313 2.0 5.0 0.00 0.01 0.00 57 1025.2
20240718154004 74 5 3.0 7.0 0.00 0.01 0.00 58 1025.2
20240718153504 73 356 3.0 9.0 0.00 0.01 0.00 59 1025.2
20240718153003 72 336 3.0 8.0 0.00 0.01 0.00 60 1025.2
20240718152504 72 0 4.0 8.0 0.00 0.01 0.00 61 1025.2
20240718152003 72 338 3.0 8.0 0.00 0.01 0.00 61 1025.2
20240718151503 71 347 3.0 7.0 0.00 0.01 0.00 62 1025.3
20240718151004 71 334 3.0 8.0 0.00 0.01 0.00 64 1025.2
20240718150503 70 343 2.0 5.0 0.00 0.01 0.00 65 1025.3
20240718150004 70 334 2.0 5.0 0.00 0.01 0.00 66 1025.3
20240718145504 69 332 3.0 7.0 0.00 0.01 0.00 66 1025.3
20240718145003 69 356 5.0 7.0 0.00 0.01 0.00 67 1025.2
20240718144504 69 349 4.0 8.0 0.00 0.01 0.00 68 1025.3
20240718144003 68 0 3.0 6.0 0.00 0.01 0.00 69 1025.3
20240718143504 68 357 2.0 6.0 0.00 0.01 0.00 71 1025.2
20240718143004 67 343 2.0 5.0 0.00 0.01 0.00 73 1025.2
20240718142503 66 0 1.0 5.0 0.00 0.01 0.00 74 1025.2
20240718142004 66 9 3.0 6.0 0.00 0.01 0.00 74 1025.2
20240718141504 65 351 3.0 3.0 0.00 0.01 0.00 75 1025.2
20240718141004 65 16 1.0 3.0 0.00 0.01 0.00 76 1025.1
20240718140504 64 8 3.0 5.0 0.00 0.01 0.00 77 1025.1
20240718140004 63 333 0.0 3.0 0.00 0.01 0.00 78 1025.1
20240718135504 63 346 1.0 3.0 0.00 0.01 0.00 78 1025.1
20240718135003 63 332 2.0 3.0 0.00 0.01 0.00 78 1025.1
20240718134504 62 350 1.0 3.0 0.00 0.01 0.00 79 1025.1
20240718134004 62 331 2.0 3.0 0.00 0.01 0.00 79 1025.1
20240718133503 62 3 0.0 0.0 0.00 0.01 0.00 79 1025.2
20240718133004 62 3 0.0 0.0 0.00 0.01 0.00 79 1025.2
20240718132504 62 3 0.0 0.0 0.00 0.01 0.00 80 1025.2
20240718132003 61 3 0.0 0.0 0.00 0.01 0.00 79 1025.2
20240718131504 61 11 0.0 2.0 0.00 0.01 0.00 79 1025.2
20240718131004 61 12 2.0 3.0 0.00 0.01 0.00 79 1025.2
20240718130504 61 14 0.0 3.0 0.00 0.01 0.00 79 1025.2
20240718130004 61 16 3.0 5.0 0.00 0.01 0.00 78 1025.1
20240718125504 61 18 2.0 7.0 0.00 0.01 0.00 78 1025.1
20240718125004 61 11 4.0 8.0 0.00 0.01 0.00 77 1025.1
20240718124504 60 12 5.0 7.0 0.00 0.01 0.00 77 1025.1
20240718124004 60 5 2.0 3.0 0.00 0.01 0.00 77 1025.0
20240718123503 60 3 2.0 3.0 0.00 0.01 0.00 76 1025.0
20240718123004 60 355 2.0 3.0 0.00 0.01 0.00 76 1025.0
20240718122504 60 4 0.0 3.0 0.00 0.01 0.00 75 1025.0
20240718122003 60 3 0.0 0.0 0.00 0.01 0.00 75 1025.0
20240718121504 61 355 1.0 3.0 0.00 0.01 0.00 75 1024.9
20240718121003 61 325 1.0 2.0 0.00 0.01 0.00 74 1025.0
20240718120504 61 300 1.0 3.0 0.00 0.01 0.00 74 1025.0
20240718120003 61 293 0.0 2.0 0.00 0.01 0.00 73 1024.9
20240718115504 61 311 2.0 3.0 0.00 0.01 0.00 72 1024.9
20240718115004 62 349 2.0 5.0 0.00 0.01 0.00 72 1024.9
20240718114503 62 1 3.0 5.0 0.00 0.01 0.00 71 1024.9
20240718114004 62 6 6.0 8.0 0.00 0.01 0.00 71 1024.9
20240718113503 63 341 3.0 5.0 0.00 0.01 0.00 70 1024.9
20240718113004 63 301 3.0 10.0 0.00 0.01 0.00 69 1024.9
20240718112504 64 11 7.0 10.0 0.00 0.01 0.00 68 1024.7
20240718112003 64 11 5.0 8.0 0.00 0.01 0.00 68 1024.7
20240718111504 65 8 3.0 6.0 0.00 0.01 0.00 67 1024.6
20240718111003 65 310 3.0 3.0 0.00 0.01 0.00 66 1024.6
20240718110504 65 180 1.0 3.0 0.00 0.01 0.00 65 1024.6
20240718110004 66 173 3.0 6.0 0.00 0.01 0.00 65 1024.5
20240718105503 66 189 5.0 9.0 0.00 0.01 0.00 65 1024.4
20240718105004 66 185 5.0 10.0 0.00 0.01 0.00 65 1024.2
20240718104504 66 167 7.0 14.0 0.00 0.01 0.00 65 1024.2
20240718104003 65 161 7.0 12.0 0.00 0.01 0.00 65 1024.1
20240718103504 66 161 6.0 12.0 0.00 0.01 0.00 65 1024.2
20240718103003 65 171 6.0 12.0 0.00 0.01 0.00 66 1024.3
20240718102504 65 162 4.0 9.0 0.00 0.01 0.00 67 1024.3
20240718102004 65 188 5.0 12.0 0.00 0.01 0.00 67 1024.3
20240718101503 65 168 5.0 12.0 0.00 0.01 0.00 67 1024.2
20240718101004 65 157 7.0 12.0 0.00 0.01 0.00 68 1024.2
20240718100503 64 155 5.0 8.0 0.00 0.01 0.00 71 1024.4
20240718100004 64 151 4.0 9.0 0.00 0.01 0.00 72 1024.5
20240718095504 64 163 4.0 7.0 0.00 0.01 0.00 72 1024.6
20240718095003 64 162 5.0 8.0 0.00 0.01 0.00 72 1024.6
20240718094504 63 159 5.0 10.0 0.00 0.01 0.00 73 1024.5
20240718094004 63 130 5.0 9.0 0.00 0.01 0.00 75 1024.6
20240718093503 62 143 5.0 12.0 0.00 0.01 0.00 76 1024.7
20240718093004 62 140 8.0 12.0 0.00 0.01 0.00 77 1024.6
20240718092504 62 146 9.0 12.0 0.00 0.01 0.00 78 1024.6
20240718092003 62 153 6.0 10.0 0.00 0.01 0.00 78 1024.7
20240718091504 62 186 5.0 12.0 0.00 0.01 0.00 78 1024.8
20240718091003 62 150 7.0 12.0 0.00 0.01 0.00 79 1024.9
20240718090504 62 148 9.0 14.0 0.00 0.01 0.00 79 1025.2
20240718090004 61 151 10.0 14.0 0.00 0.01 0.00 81 1025.0
20240718085503 61 156 7.0 12.0 0.00 0.01 0.00 80 1025.1
20240718085004 62 206 4.0 12.0 0.00 0.01 0.00 80 1025.2
20240718084503 62 158 10.0 20.0 0.00 0.01 0.00 81 1025.1
20240718084004 62 151 9.0 17.0 0.00 0.01 0.00 81 1025.2
20240718083504 61 147 13.0 20.0 0.00 0.01 0.00 82 1025.3
20240718083003 61 155 12.0 16.0 0.00 0.01 0.00 83 1025.3
20240718082504 61 158 12.0 20.0 0.00 0.01 0.00 83 1025.3
20240718082004 60 156 13.0 18.0 0.00 0.01 0.00 85 1025.6
20240718081503 60 159 10.0 14.0 0.00 0.01 0.00 85 1025.5
20240718081004 60 155 10.0 15.0 0.00 0.01 0.00 85 1025.6
20240718080504 60 150 10.0 13.0 0.00 0.01 0.00 84 1025.8
20240718080004 60 148 5.0 10.0 0.00 0.01 0.00 85 1026.1
20240718075503 60 145 6.0 12.0 0.00 0.01 0.00 85 1026.2
20240718075004 59 151 9.0 16.0 0.00 0.01 0.00 85 1026.2
20240718074503 59 153 9.0 14.0 0.00 0.01 0.00 85 1026.5
20240718074004 59 150 11.0 15.0 0.00 0.01 0.00 84 1026.3
20240718073504 60 153 10.0 16.0 0.00 0.01 0.00 84 1026.4
20240718073003 60 158 10.0 13.0 0.00 0.01 0.00 84 1026.5
20240718072504 60 150 8.0 13.0 0.00 0.01 0.00 84 1026.5
20240718072004 60 146 8.0 14.0 0.00 0.01 0.00 84 1026.6
20240718071504 60 150 9.0 13.0 0.00 0.01 0.00 84 1026.6
20240718071004 60 158 7.0 12.0 0.00 0.01 0.00 84 1026.8
20240718070503 60 107 7.0 10.0 0.00 0.01 0.00 85 1026.9
20240718070004 59 126 4.0 7.0 0.00 0.01 0.00 84 1027.0
20240718065504 59 106 3.0 7.0 0.00 0.01 0.00 84 1027.0
20240718065003 60 112 6.0 9.0 0.00 0.01 0.00 84 1027.1
20240718064504 60 109 6.0 8.0 0.00 0.01 0.00 83 1027.2
20240718064004 60 118 5.0 8.0 0.00 0.01 0.00 82 1027.3
20240718063504 61 153 6.0 8.0 0.00 0.01 0.00 80 1027.3
20240718063003 61 120 0.0 3.0 0.00 0.01 0.00 80 1027.4
20240718062504 61 80 0.0 2.0 0.00 0.01 0.00 80 1027.1
20240718062004 62 82 1.0 6.0 0.00 0.01 0.00 80 1027.2
20240718061503 62 103 3.0 7.0 0.00 0.01 0.00 80 1027.2
20240718061004 62 99 3.0 6.0 0.00 0.01 0.00 80 1027.4
20240718060504 62 100 5.0 8.0 0.00 0.01 0.00 80 1027.4
20240718060004 62 104 3.0 7.0 0.00 0.01 0.00 80 1027.4
20240718055504 62 111 4.0 7.0 0.00 0.01 0.01 80 1027.5
20240718055003 62 107 3.0 7.0 0.00 0.01 0.01 80 1027.7
20240718054504 62 104 6.0 8.0 0.00 0.01 0.01 80 1027.5
20240718054004 62 115 3.0 8.0 0.00 0.01 0.01 79 1027.5
20240718053504 62 106 4.0 6.0 0.00 0.01 0.01 79 1027.5
20240718053004 63 98 3.0 3.0 0.00 0.01 0.01 79 1027.5
20240718052504 63 111 5.0 7.0 0.00 0.01 0.01 78 1027.5
20240718052003 63 110 3.0 6.0 0.00 0.01 0.01 77 1027.6
20240718051503 64 151 3.0 7.0 0.00 0.01 0.01 77 1027.5
20240718051004 64 320 0.0 0.0 0.00 0.01 0.01 78 1027.5
20240718050503 64 321 0.0 0.0 0.00 0.01 0.01 78 1027.5
20240718050004 63 320 0.0 0.0 0.00 0.01 0.01 78 1027.7
20240718045504 63 320 0.0 0.0 0.00 0.01 0.01 78 1027.6
20240718045003 63 320 0.0 3.0 0.00 0.01 0.01 78 1027.6
20240718044504 64 306 3.0 5.0 0.01 0.01 0.01 78 1027.6
20240718044004 64 300 3.0 5.0 0.01 0.01 0.01 79 1027.6
20240718043503 63 300 3.0 7.0 0.01 0.01 0.01 79 1027.8
20240718043004 63 310 5.0 7.0 0.01 0.01 0.01 79 1027.7
20240718042504 63 313 4.0 7.0 0.01 0.01 0.01 79 1028.1
20240718042003 64 307 3.0 8.0 0.01 0.01 0.01 80 1028.0
20240718041504 64 315 5.0 8.0 0.01 0.01 0.01 80 1027.9
20240718041003 64 297 5.0 9.0 0.01 0.01 0.01 80 1027.9
20240718040504 64 316 6.0 9.0 0.01 0.01 0.01 79 1028.0
20240718040003 65 314 5.0 8.0 0.01 0.01 0.01 79 1028.0
20240718035504 65 302 4.0 8.0 0.01 0.01 0.01 78 1028.1
20240718035004 65 301 6.0 13.0 0.01 0.01 0.01 78 1028.3
20240718034503 65 311 10.0 15.0 0.00 0.00 0.00 77 1028.2
20240718034004 66 303 9.0 13.0 0.00 0.00 0.00 76 1028.3
20240718033504 66 319 9.0 16.0 0.00 0.00 0.00 74 1028.3
20240718033004 66 312 12.0 18.0 0.00 0.00 0.00 74 1028.3
20240718032504 67 305 15.0 23.0 0.00 0.00 0.00 72 1028.1
20240718032003 68 304 10.0 20.0 0.00 0.00 0.00 69 1027.8
20240718031504 69 312 13.0 21.0 0.00 0.00 0.00 66 1027.7
20240718031004 70 318 10.0 20.0 0.00 0.00 0.00 63 1027.5
20240718030503 71 320 11.0 20.0 0.00 0.00 0.00 61 1027.1
20240718030003 72 311 14.0 21.0 0.00 0.00 0.00 58 1026.9
20240718025504 73 339 4.0 12.0 0.00 0.00 0.00 51 1026.8
20240718025004 73 101 2.0 9.0 0.00 0.00 0.00 53 1026.4
20240718024503 73 70 1.0 5.0 0.00 0.00 0.00 53 1025.9
20240718024003 73 60 0.0 3.0 0.00 0.00 0.00 49 1026.1
20240718023507 73 86 2.0 7.0 0.00 0.00 0.00 46 1025.9
20240718023003 73 120 2.0 5.0 0.00 0.00 0.00 46 1025.6
20240718022504 73 160 5.0 8.0 0.00 0.00 0.00 45 1025.4
20240718022004 73 154 5.0 8.0 0.00 0.00 0.00 45 1025.3
20240718021503 74 109 5.0 8.0 0.00 0.00 0.00 44 1025.3
20240718021004 74 106 5.0 8.0 0.00 0.00 0.00 45 1025.3
20240718020504 74 154 5.0 9.0 0.00 0.00 0.00 46 1025.1
20240718020004 74 145 5.0 8.0 0.00 0.00 0.00 45 1025.0
20240718015503 75 149 5.0 8.0 0.00 0.00 0.00 44 1025.1
20240718015004 76 167 3.0 9.0 0.00 0.00 0.00 43 1025.1
20240718014504 76 155 6.0 10.0 0.00 0.00 0.00 42 1025.1
20240718014004 77 155 6.0 12.0 0.00 0.00 0.00 41 1025.0
20240718013503 77 160 8.0 12.0 0.00 0.00 0.00 41 1025.0
20240718013004 77 154 6.0 9.0 0.00 0.00 0.00 41 1025.0
20240718012504 77 165 7.0 14.0 0.00 0.00 0.00 40 1024.8
20240718012004 78 163 5.0 12.0 0.00 0.00 0.00 40 1024.9
20240718011503 78 164 5.0 12.0 0.00 0.00 0.00 39 1024.7
20240718011003 79 175 6.0 10.0 0.00 0.00 0.00 39 1024.5
20240718010504 79 176 6.0 12.0 0.00 0.00 0.00 40 1024.6
20240718010004 79 203 5.0 9.0 0.00 0.00 0.00 39 1024.7
20240718005503 80 220 2.0 6.0 0.00 0.00 0.00 41 1024.7
20240718005004 80 209 5.0 8.0 0.00 0.00 0.00 40 1024.6
20240718004504 80 227 6.0 9.0 0.00 0.00 0.00 40 1024.6
20240718004003 81 249 3.0 7.0 0.00 0.00 0.00 39 1024.5
20240718003504 81 192 3.0 7.0 0.00 0.00 0.00 39 1024.6
20240718003004 81 224 6.0 12.0 0.00 0.00 0.00 39 1024.5
20240718002503 80 247 6.0 12.0 0.00 0.00 0.00 38 1024.6
20240718002004 80 229 9.0 12.0 0.00 0.00 0.00 39 1024.4
20240718001504 80 213 6.0 10.0 0.00 0.00 0.00 43 1024.5
20240718001003 80 221 6.0 9.0 0.00 0.00 0.00 42 1024.4
20240718000504 79 224 3.0 6.0 0.00 0.00 0.00 42 1024.4
20240718000004 79 211 3.0 10.0 0.00 0.00 0.00 43 1024.5
20240717235504 79 215 6.0 10.0 0.00 0.00 0.00 44 1024.5
20240717235004 79 154 3.0 12.0 0.00 0.00 0.00 45 1024.5
20240717234504 79 144 7.0 13.0 0.00 0.00 0.00 44 1024.4
20240717234010 32 184 0.0 16.0 0.00 0.00 0.00 100
20240717230004 78 159 12.0 18.0 0.00 0.00 0.00 43 1024.8
20240717225504 79 158 14.0 21.0 0.00 0.00 0.00 41 1024.8
20240717225004 80 157 10.0 20.0 0.00 0.00 0.00 39 1024.8
20240717224504 82 160 12.0 18.0 0.00 0.00 0.00 37 1024.8
20240717224004 82 158 13.0 20.0 0.00 0.00 0.00 37 1024.8